Milan, NH

5:52 PM EST on February 22, 2017 (GMT -0500)
Berlin Municipal

Weather History for KBML - August, 2013

Change the Weather History Date:

Wednesday, August 14, 2013

  Actual Average Record
Temperature  
Mean Temperature 62 °F -  
Max Temperature 71 °F 75 °F 91 °F (2002)
Min Temperature 54 °F 48 °F 37 °F (2006)
Degree Days  
Heating Degree Days 3    
Growing Degree Days 12 (Base 50)    
Moisture  
Dew Point 57 °F    
Average Humidity 87    
Maximum Humidity 100    
Minimum Humidity 53    
Precipitation  
Precipitation 0.02 in - - ()
Sea Level Pressure  
Sea Level Pressure 29.71 in    
Wind  
Wind Speed 1 mph (West)    
Max Wind Speed 9 mph    
Max Gust Speed -    
Visibility 7 miles    
Events Rain    
Averages and records for this station are not official NWS values.
T = Trace of Precipitation, MM = Missing Value Source: NWS Daily Summary

Daily Weather History Graph

Daily Weather History Graph

Search for Another Location

Airport or City:

Trip Planner

Search our weather history database for the weather conditions in past years. The results will help you decide how hot, cold, wet, or windy it might be!

Date:

Astronomy

Aug. 14, 2013 Rise Set
Actual Time 5:46 AM EDT 7:51 PM EDT
Civil Twilight 5:14 AM EDT 8:23 PM EDT
Nautical Twilight 4:35 AM EDT 9:02 PM EDT
Astronomical Twilight 3:52 AM EDT 9:44 PM EDT
Moon 2:03 PM EDT (8/14) 11:51 PM EDT (8/14)
Length of Visible Light 15h 08m
Length of Day
14h 05m
First Quarter, 52% of the Moon is Illuminated
Aug 14
First Quarter
Aug 20
Full
Aug 28
Last Quarter
Sep 5
New
Sep 12
First Quarter

Hourly Weather History & Observations

Time (EDT) Temp. Dew Point Humidity Pressure Visibility Wind Dir Wind Speed Gust Speed Precip Events Conditions
12:32 AM 62.6 °F 62.6 °F 100% 29.70 in 7.0 mi Calm Calm - N/A   Overcast
12:52 AM 62.1 °F 61.0 °F 96% 29.69 in 5.0 mi Calm Calm - N/A   Overcast
1:23 AM 60.8 °F 60.8 °F 100% 29.68 in 5.0 mi Calm Calm - N/A   Overcast
1:34 AM 62.6 °F 60.8 °F 94% 29.68 in 5.0 mi NNW 3.5 mph - N/A   Overcast
1:52 AM 62.1 °F 61.0 °F 96% 29.67 in 5.0 mi Calm Calm - N/A   Overcast
2:00 AM 62.6 °F 60.8 °F 94% 29.67 in 5.0 mi Calm Calm - N/A   Overcast
2:30 AM 62.6 °F 60.8 °F 94% 29.67 in 5.0 mi Calm Calm - N/A   Overcast
2:52 AM 61.0 °F 60.1 °F 97% 29.67 in 6.0 mi Calm Calm - N/A   Overcast
3:29 AM 60.8 °F 60.8 °F 100% 29.67 in 2.5 mi Calm Calm - N/A   Overcast
3:41 AM 62.6 °F 60.8 °F 94% 29.67 in 4.0 mi Calm Calm - N/A   Overcast
3:45 AM 60.8 °F 60.8 °F 100% 29.67 in 1.5 mi Calm Calm - N/A   Overcast
3:52 AM 60.1 °F 59.0 °F 96% 29.67 in 1.8 mi Calm Calm - N/A   Overcast
3:59 AM 60.8 °F 60.8 °F 100% 29.67 in 1.2 mi SSE 3.5 mph - N/A   Overcast
4:07 AM 60.8 °F 59.0 °F 94% 29.68 in 2.0 mi Calm Calm - N/A   Overcast
4:12 AM 60.8 °F 60.8 °F 100% 29.67 in 2.0 mi Calm Calm - N/A   Overcast
4:14 AM 60.8 °F 60.8 °F 100% 29.67 in 1.2 mi Calm Calm - N/A   Overcast
4:22 AM 60.8 °F 59.0 °F 94% 29.67 in 0.8 mi Calm Calm - N/A   Overcast
4:25 AM 60.8 °F 59.0 °F 94% 29.67 in 1.5 mi Calm Calm - N/A   Overcast
4:27 AM 60.8 °F 59.0 °F 94% 29.67 in 4.0 mi Calm Calm - N/A   Overcast
4:41 AM 60.8 °F 60.8 °F 100% 29.67 in 8.0 mi Calm Calm - N/A   Overcast
4:52 AM 60.1 °F 59.0 °F 96% 29.67 in 6.0 mi Calm Calm - 0.01 in Rain Light Rain
5:52 AM 61.0 °F 59.0 °F 93% 29.68 in 10.0 mi Calm Calm - 0.00 in   Overcast
6:06 AM 60.8 °F 59.0 °F 94% 29.68 in 5.0 mi Calm Calm - 0.01 in Rain Light Rain
6:16 AM 60.8 °F 59.0 °F 94% 29.68 in 9.0 mi NW 3.5 mph - 0.01 in Rain Light Rain
6:41 AM 60.8 °F 57.2 °F 88% 29.69 in 10.0 mi Calm Calm - 0.01 in   Overcast
6:52 AM 61.0 °F 57.0 °F 87% 29.69 in 10.0 mi Calm Calm - 0.01 in   Overcast
7:52 AM 60.1 °F 57.0 °F 90% 29.70 in 10.0 mi SSE 4.6 mph - N/A   Overcast
8:52 AM 61.0 °F 55.0 °F 81% 29.70 in 10.0 mi Variable 3.5 mph - N/A   Overcast
9:05 AM 60.8 °F 55.4 °F 82% 29.70 in 10.0 mi Variable 4.6 mph - N/A   Overcast
9:52 AM 64.0 °F 55.9 °F 75% 29.69 in 10.0 mi Variable 4.6 mph - N/A   Mostly Cloudy
10:52 AM 64.9 °F 54.0 °F 68% 29.70 in 10.0 mi Variable 6.9 mph - N/A   Scattered Clouds
11:52 AM 66.9 °F 52.0 °F 59% 29.70 in 10.0 mi Variable 5.8 mph - N/A   Mostly Cloudy
12:52 PM 69.1 °F 52.0 °F 54% 29.70 in 10.0 mi Variable 5.8 mph - N/A   Scattered Clouds
1:52 PM 70.0 °F 52.0 °F 53% 29.70 in 10.0 mi WNW 9.2 mph - N/A   Unknown
3:52 PM - - N/A% 29.73 in - North - - N/A   Unknown
6:52 PM 61.0 °F 48.0 °F 62% 29.82 in 10.0 mi West 9.2 mph - N/A   Clear
7:52 PM 59.0 °F 48.0 °F 67% 29.85 in 10.0 mi North - - N/A   Clear
8:52 PM 57.9 °F 48.0 °F 70% 29.87 in 10.0 mi North - - N/A   Clear
9:52 PM 57.9 °F 48.9 °F 72% 29.91 in 10.0 mi WNW 3.5 mph - N/A   Overcast
10:52 PM 54.0 °F 48.9 °F 83% 29.91 in 10.0 mi Calm Calm - N/A   Overcast
11:52 PM 54.0 °F 50.0 °F 86% 29.92 in 10.0 mi Calm Calm - N/A   Scattered Clouds